Home   Weather   Okayama   Past weeks
Flag for Japan

Past Weather in Okayama, Japan — Yesterday and Last 2 Weeks

Now
77 °F

Overcast.


Feels Like: 78 °F
Forecast: 84 / 75 °F
Wind: 2 mph from Northwest

Location: Takamatsu

Current Time: Jul 18, 2019 at 3:39:51 am

Latest Report: Jul 18, 2019 at 3:00 am


Visibility: 9 mi

Pressure: 29.89 "Hg

Humidity: 95%

Dew Point: 76 °F

Location of OkayamaLocation

Past Weather in Okayama — Graph

°F

Okayama Temperature Yesterday

Maximum temperature yesterday: 89 °F (at 4:00 pm)
Minimum temperature yesterday: 74 °F (at 5:00 am)
Average temperature yesterday: 81 °F

High & Low Weather Summary for the Past Weeks

 TemperatureHumidityPressure
High89 °F (Jul 17, 4:00 pm)100% (Jul 15, 12:00 am)29.93 "Hg (Jul 15, 12:00 am)
Low69 °F (Jul 13, 7:00 pm)49% (Jul 7, 4:00 pm)29.50 "Hg (Jul 14, 1:00 am)
Average77 °F79%29.71 "Hg
* Reported Jul 3 3:00 am — Jul 18 2:00 am, Okayama. Weather by CustomWeather, © 2019

Note: Actual official high and low records may vary slightly from our data, if they occured in-between our weather recording intervals... More about our weather records

Advertising

Okayama Weather History for the Previous 24 Hours

Scroll right to see more
 ConditionsComfort  
Time TempWeatherWind HumidityBarometerVisibility
2:00 am
Thu, Jul 18
77 °FWarm.3 mph94%29.89 "HgN/A
1:00 am78 °FWarm.2 mph93%29.90 "HgN/A
12:00 am78 °FWarm.2 mph93%29.91 "HgN/A
11:00 pm
Wed, Jul 17
80 °FWarm.3 mph85%29.92 "HgN/A
10:00 pm82 °FWarm.2 mph79%29.91 "HgN/A
9:00 pm83 °FPassing clouds.1 mph75%29.90 "Hg12 mi
8:00 pm83 °FWarm.3 mph73%29.88 "HgN/A
6:00 pm85 °FOvercast.6 mph63%29.87 "Hg12 mi
5:00 pm87 °FWarm.8 mph61%29.86 "HgN/A
4:00 pm89 °FHot.7 mph60%29.86 "HgN/A
3:00 pm88 °FOvercast.6 mph58%29.86 "Hg12 mi
2:00 pm87 °FWarm.6 mph58%29.88 "HgN/A
1:00 pm86 °FWarm.7 mph61%29.88 "HgN/A
12:00 pm84 °FOvercast.8 mph68%29.89 "Hg9 mi
11:00 am82 °FWarm.7 mph74%29.91 "HgN/A
10:00 am83 °FWarm.5 mph72%29.91 "HgN/A
9:00 am81 °FPassing clouds.3 mph78%29.92 "Hg6 mi
8:00 am79 °FWarm.3 mph80%29.93 "HgN/A
7:00 am77 °FMild.2 mph84%29.92 "HgN/A
6:00 am75 °FFog.1 mph86%29.91 "Hg5 mi
5:00 am74 °FMild.3 mph91%29.90 "HgN/A
4:00 am75 °FMild.2 mph90%29.89 "HgN/A
3:00 am75 °FFog.3 mph90%29.89 "Hg5 mi
Weather by CustomWeather, © 2019

See weather overview